Regional Weather Roundup
Issued by NWS

Home | Current Version | Previous Version | Graphics & Text | Print | Product List | Glossary On
Versions: 1 2 3 4 5 6 7 8 9 10 11 12 13 14 15 16 17 18 19 20 21 22 23 24 25 26 27 28 29 30 31 32 33 34 35 36 37 38 39 40 41 42 43 44 45 46 47 48 49 50
000
ASUS43 KLSX 202359
RWRMO

WEATHER SUMMARY FOR MISSOURI
NATIONAL WEATHER SERVICE SPRINGFIELD MO
700 PM CDT MON APR 20 2015

NOTE: "FAIR" INDICATES FEW OR NO CLOUDS BELOW 12,000 FEET WITH NO
       SIGNIFICANT WEATHER AND/OR OBSTRUCTIONS TO VISIBILITY.
       CURRENT SKY AND/OR WEATHER CONDITIONS ARE NOT AVAILABLE FOR
       CHILLICOTHE AND FARMINGTON.

MOZ001>031-035>038-043-044-053-054-210100-
...NORTHERN AND WESTERN MISSOURI...

CITY           SKY/WX    TMP DP  RH WIND       PRES   REMARKS
KANSAS CTY INT MOSUNNY   56  25  30 W16G25    29.83S
6HR MIN TEMP:  53; 6HR MAX TEMP:  58;

KANSAS C DTWN  SUNNY     58  24  27 W10G18    29.83S
6HR MIN TEMP:  57; 6HR MAX TEMP:  60; 6HR PCP: TRACE;

LEE`S SUMMIT   MOSUNNY   56  24  29 W15G24    29.84S
6HR MIN TEMP:  53; 6HR MAX TEMP:  59;

ST JOSEPH      PTSUNNY   57  24  28 NW16      29.81R
6HR MIN TEMP:  53; 6HR MAX TEMP:  59;

CHILLICOTHE      N/A     57  25  29 NW12      29.79S
6HR MIN TEMP:  52; 6HR MAX TEMP:  59;

KIRKSVILLE     MOCLDY    53  26  35 W12G25    29.75F
6HR MIN TEMP:  48; 6HR MAX TEMP:  54; 6HR PCP:  0.01;


$$
MOZ066>068-077>081-088>096-101>105-210100-
...SOUTHWEST MISSOURI...

CITY           SKY/WX    TMP DP  RH WIND       PRES   REMARKS
SPRINGFIELD    PTCLDY    56  25  30 W13G23    29.89R
6HR MIN TEMP:  55; 6HR MAX TEMP:  59;

JOPLIN         MOSUNNY   57  33  40 NW13      29.92R
6HR MIN TEMP:  55; 6HR MAX TEMP:  60;


$$
MOZ032>034-039>042-045>050-055>058-069>072-210100-
...CENTRAL MISSOURI...

CITY           SKY/WX    TMP DP  RH WIND       PRES   REMARKS
COLUMBIA       PTCLDY    55  26  32 W16G25    29.81R
6HR MIN TEMP:  52; 6HR MAX TEMP:  57;

JEFFERSON CITY PTCLDY    56  28  34 W14G23    29.82R
6HR MIN TEMP:  54; 6HR MAX TEMP:  58;

ROLLA          PTCLDY    53  27  36 W12       29.81S
6HR MIN TEMP:  52; 6HR MAX TEMP:  58;

SEDALIA        PTCLDY    55  28  35 NW9       29.85R
6HR MIN TEMP:  53; 6HR MAX TEMP:  59;

OSAGE BEACH    CLEAR     57  21  24 W10G20    29.84R

$$
MOZ051-052-059>065-210100-
...EAST CENTRAL MISSOURI...

CITY           SKY/WX    TMP DP  RH WIND       PRES   REMARKS
ST LOUIS INTL  MOCLDY    56  31  38 W12       29.79R
6HR MIN TEMP:  55; 6HR MAX TEMP:  58;

SPIRIT OF STL  MOCLDY    55  30  38 W9G25     29.79R
6HR MIN TEMP:  54; 6HR MAX TEMP:  58;

ST CHARLES     MOCLDY    54  33  45 W12G22    29.78R
6HR MIN TEMP:  52; 6HR MAX TEMP:  56;


$$
MOZ072>076-082>087-097>100-106>115-210100-
...SOUTH CENTRAL AND SOUTHEAST MISSOURI...

CITY           SKY/WX    TMP DP  RH WIND       PRES   REMARKS
CAPE GIRARDEAU PTCLDY    59  35  40 NW10      29.80R
6HR MIN TEMP:  59; 6HR MAX TEMP:  65;

FARMINGTON     PTCLDY    55  28  35 W9        29.85R
6HR MIN TEMP:  55; 6HR MAX TEMP:  59;

POPLAR BLUFF   CLEAR     61  30  31 W13       29.82R
6HR MIN TEMP:  61; 6HR MAX TEMP:  66; 6HR PCP: TRACE;

WEST PLAINS    PTCLDY    56  27  32 NW12G20   29.87R
6HR MIN TEMP:  56; 6HR MAX TEMP:  62;


$$



USA.gov is the U.S. government's official web portal to all federal, state and local government web resources and services.